Regional Weather Roundup
Issued by NWS

Home | Current Version | Previous Version | Graphics & Text | Print | Product List | Glossary Off
Versions: 1 2 3 4 5 6 7 8 9 10 11 12 13 14 15 16 17 18 19 20 21 22 23 24 25 26 27 28 29 30 31 32 33 34 35 36 37 38 39 40 41 42 43 44 45 46 47 48 49 50

000
ASUS43 KTOP 251059
RWRKS

WEATHER ROUNDUP FOR KANSAS
NATIONAL WEATHER SERVICE GOODLAND KS
600 AM CDT WED APR 25 2018

NOTE:  "FAIR" INDICATES FEW OR NO CLOUDS BELOW 12,000 FEET WITH NO
SIGNIFICANT WEATHER AND/OR OBSTRUCTIONS TO VISIBILITY.

KSZ001>006-013>018-027>032-041>047-251200-
NORTHWEST KANSAS

CITY           SKY/WX    TMP DP  RH WIND       PRES   REMARKS
GOODLAND       CLOUDY    32  30  92 N12       30.34S WCI  23
HAYS           CLOUDY    40  37  89 N18G24    30.27F WCI  31
HILL CITY      CLOUDY    40  37  89 N17       30.31F WCI  31
RUSSELL        CLOUDY    41  41 100 NW20      30.25F
$$

KSZ061>065-074>080-084>089-251200-
SOUTHWEST KANSAS

CITY           SKY/WX    TMP DP  RH WIND       PRES   REMARKS
DODGE CITY     CLOUDY    38  35  89 NW10      30.30R WCI  31
GARDEN CITY    PTCLDY    35  32  88 N20       30.30F WCI  24
GREAT BEND       N/A     40  39  97 NW17G24   30.27F WCI  31
LIBERAL        MOCLDY    39  37  92 NW12      30.34F WCI  32
$$

KSZ066>073-081>083-090>101-251200-
SOUTHEAST KANSAS

CITY           SKY/WX    TMP DP  RH WIND       PRES   REMARKS
CHANUTE        LGT RAIN  52  50  93 NW8       30.15R
COFFEYVILLE    RAIN      52  50  93 NW17      30.16R
HUTCHINSON     LGT RAIN  44  43  96 NW12      30.21F
MEDICINE LODGE   N/A     43  41  93 N17G24    30.25F
NEWTON         LGT RAIN  44  43  96 NW8       30.21F
PARSONS        LGT RAIN  52  51  97 W9        30.18R
WICHITA INTL   RAIN      45  45 100 NW12      30.22S
WICHITA JABRA  LGT RAIN  45  45 100 NW13      30.21S
WICHITA MCCONL LGT RAIN  45  45  99 NW10      30.21S
WINFIELD       LGT RAIN  47  47 100 N14       30.20F
$$

KSZ007>012-019>026-033>040-048>060-102>105-251200-
NORTHEAST KANSAS

CITY           SKY/WX    TMP DP  RH WIND       PRES   REMARKS
CONCORDIA      LGT RAIN  43  42  97 N12       30.23S FOG
EMPORIA        LGT RAIN  49  47  93 NW10      30.17S FOG
LAWRENCE       CLOUDY    51  48  89 NW8       30.15F
MANHATTAN      LGT RAIN  50  48  93 S3        30.16F FOG
OLATHE IND     CLOUDY    53  48  83 NW7       30.14F
OLATHE EXE     CLOUDY    53  45  74 NW6       30.13S
SALINA         LGT RAIN  46  45  96 NW18      30.21F FOG
TOPEKA BILLARD LGT RAIN  51  49  92 NW3       30.16F
TOPEKA FORBES  LGT RAIN  52  50  93 NW6       30.16S
$$




USA.gov is the U.S. government's official web portal to all federal, state and local government web resources and services.